EWG221 EDDK-LFPG

Flight info

Callsign EWG221
Flight time 0h 52m
Altitude 24000
Route NVO2K NVO M170 LNO/N0421F230 N852 DIK/N0393F180 Y180 TILVI Q763 RAPOR/N0399F190 Z157 VEDUS
Aircraft A320/M-SDE3FGHIRWY/LB1

Departure

Time 2026-05-08 21:13
Airport Cologne Bonn Airport (EDDK)

Arrival

Time 2026-05-08 22:05
Airport Charles de Gaulle International Airport (LFPG)
Time Latitude Longitude Altitude Speed Heading
2026-05-08 20:36 50.88173 7.11948 232 ft 0 kts 216°
2026-05-08 21:03 50.88184 7.11961 232 ft 2 kts 216°
2026-05-08 21:04 50.88198 7.11977 234 ft 2 kts 216°
2026-05-08 21:04 50.88212 7.11988 234 ft 2 kts 159°
2026-05-08 21:04 50.88219 7.11983 233 ft 0 kts 130°
2026-05-08 21:07 50.88204 7.12037 233 ft 14 kts 114°
2026-05-08 21:07 50.88142 7.12180 230 ft 17 kts 127°
2026-05-08 21:07 50.88086 7.12353 231 ft 19 kts 119°
2026-05-08 21:07 50.88005 7.12490 230 ft 14 kts 138°
2026-05-08 21:08 50.87926 7.12594 230 ft 16 kts 150°
2026-05-08 21:08 50.87821 7.12580 230 ft 15 kts 200°
2026-05-08 21:08 50.87713 7.12524 230 ft 21 kts 197°
2026-05-08 21:08 50.87562 7.12448 230 ft 24 kts 198°
2026-05-08 21:09 50.87396 7.12362 232 ft 26 kts 198°
2026-05-08 21:09 50.87228 7.12280 232 ft 18 kts 196°
2026-05-08 21:09 50.87137 7.12210 235 ft 12 kts 219°
2026-05-08 21:09 50.87059 7.12138 235 ft 12 kts 179°
2026-05-08 21:10 50.86985 7.12236 234 ft 22 kts 137°
2026-05-08 21:10 50.86832 7.12456 232 ft 37 kts 137°
2026-05-08 21:10 50.86604 7.12791 236 ft 46 kts 136°
2026-05-08 21:10 50.86448 7.13004 243 ft 27 kts 140°
2026-05-08 21:11 50.86315 7.13197 246 ft 10 kts 135°
2026-05-08 21:11 50.86268 7.13202 246 ft 8 kts 230°
2026-05-08 21:11 50.86206 7.13018 243 ft 34 kts 243°
2026-05-08 21:11 50.86105 7.12680 243 ft 22 kts 255°
2026-05-08 21:12 50.86103 7.12435 243 ft 18 kts 260°
2026-05-08 21:12 50.86046 7.12441 244 ft 8 kts 109°
2026-05-08 21:12 50.86078 7.12595 245 ft 27 kts 64°
2026-05-08 21:12 50.86246 7.13146 245 ft 92 kts 64°
2026-05-08 21:13 50.86618 7.14371 281 ft 150 kts 64°
2026-05-08 21:13 50.87054 7.15850 988 ft 147 kts 65°
2026-05-08 21:13 50.87489 7.17347 1709 ft 153 kts 68°
2026-05-08 21:13 50.87942 7.18911 2353 ft 163 kts 67°
2026-05-08 21:14 50.88454 7.20671 2767 ft 187 kts 67°
2026-05-08 21:14 50.89025 7.22666 3179 ft 213 kts 67°
2026-05-08 21:14 50.89668 7.24894 3676 ft 238 kts 66°
2026-05-08 21:14 50.90404 7.27382 4337 ft 258 kts 65°
2026-05-08 21:15 50.91189 7.30016 4906 ft 267 kts 65°
2026-05-08 21:15 50.92291 7.32402 5524 ft 273 kts 39°
2026-05-08 21:15 50.93949 7.33840 6624 ft 274 kts 14°
2026-05-08 21:15 50.95840 7.34022 7612 ft 276 kts 348°
2026-05-08 21:16 50.97593 7.32823 8574 ft 278 kts 321°
2026-05-08 21:16 50.98841 7.30490 9537 ft 281 kts 295°
2026-05-08 21:16 50.99324 7.27494 10458 ft 285 kts 270°
2026-05-08 21:16 50.98919 7.24329 10921 ft 307 kts 244°
2026-05-08 21:17 50.97825 7.21254 11264 ft 331 kts 242°
2026-05-08 21:17 50.96806 7.17837 11624 ft 352 kts 245°
2026-05-08 21:17 50.95791 7.14240 12348 ft 361 kts 246°
2026-05-08 21:17 50.94790 7.10562 13166 ft 366 kts 246°
2026-05-08 21:18 50.93794 7.06816 13989 ft 370 kts 246°
2026-05-08 21:18 50.92797 7.03028 14707 ft 375 kts 247°
2026-05-08 21:18 50.91788 6.99192 15443 ft 379 kts 247°
2026-05-08 21:18 50.90764 6.95313 16183 ft 383 kts 247°
2026-05-08 21:19 50.89728 6.91407 16928 ft 387 kts 247°
2026-05-08 21:19 50.88692 6.87515 17650 ft 391 kts 246°
2026-05-08 21:19 50.87625 6.83529 18384 ft 395 kts 246°
2026-05-08 21:19 50.86547 6.79512 19010 ft 399 kts 246°
2026-05-08 21:20 50.85452 6.75444 19626 ft 403 kts 247°
2026-05-08 21:20 50.84349 6.71348 20242 ft 407 kts 247°
2026-05-08 21:20 50.83231 6.67219 20833 ft 410 kts 247°
2026-05-08 21:20 50.82099 6.63038 21409 ft 414 kts 247°
2026-05-08 21:21 50.81364 6.60251 21781 ft 417 kts 248°
2026-05-08 21:21 50.80277 6.55981 22340 ft 420 kts 249°
2026-05-08 21:21 50.79206 6.51661 22849 ft 424 kts 249°
2026-05-08 21:21 50.78131 6.47300 23365 ft 428 kts 249°
2026-05-08 21:22 50.77043 6.42904 23849 ft 431 kts 249°
2026-05-08 21:22 50.75940 6.38481 24075 ft 433 kts 249°
2026-05-08 21:22 50.74818 6.34023 24134 ft 443 kts 249°
2026-05-08 21:22 50.73660 6.29461 24138 ft 452 kts 249°
2026-05-08 21:23 50.72484 6.24846 24136 ft 454 kts 249°
2026-05-08 21:23 50.71303 6.20223 24137 ft 455 kts 249°
2026-05-08 21:23 50.70106 6.15594 24133 ft 455 kts 248°
2026-05-08 21:23 50.68905 6.10977 24133 ft 455 kts 248°
2026-05-08 21:24 50.67725 6.06413 24133 ft 455 kts 249°
2026-05-08 21:24 50.66533 6.01779 24135 ft 456 kts 249°
2026-05-08 21:24 50.65344 5.97148 24130 ft 456 kts 249°
2026-05-08 21:24 50.64152 5.92511 24130 ft 456 kts 249°
2026-05-08 21:25 50.62958 5.87883 24127 ft 456 kts 248°
2026-05-08 21:25 50.61487 5.83453 24120 ft 457 kts 235°
2026-05-08 21:25 50.59318 5.79807 24120 ft 459 kts 219°
2026-05-08 21:25 50.56583 5.77249 24117 ft 460 kts 202°
2026-05-08 21:26 50.53485 5.76016 24111 ft 460 kts 186°
2026-05-08 21:26 50.50300 5.76204 24115 ft 460 kts 169°
2026-05-08 21:26 50.47238 5.77668 24112 ft 460 kts 159°
2026-05-08 21:26 50.44239 5.79413 24108 ft 460 kts 159°
2026-05-08 21:27 50.41237 5.81167 24106 ft 461 kts 159°
2026-05-08 21:27 50.38237 5.82925 24107 ft 461 kts 159°
2026-05-08 21:27 50.35226 5.84688 24107 ft 461 kts 159°
2026-05-08 21:27 50.32220 5.86444 24108 ft 461 kts 159°
2026-05-08 21:28 50.29210 5.88197 24109 ft 462 kts 159°
2026-05-08 21:28 50.26198 5.89947 24113 ft 462 kts 159°
2026-05-08 21:28 50.23186 5.91694 24113 ft 462 kts 159°
2026-05-08 21:28 50.20170 5.93439 24114 ft 462 kts 159°
2026-05-08 21:29 50.17154 5.95181 24113 ft 462 kts 159°
2026-05-08 21:29 50.14138 5.96920 24120 ft 462 kts 160°
2026-05-08 21:29 50.11117 5.98660 24125 ft 462 kts 160°
2026-05-08 21:29 50.08103 6.00395 24125 ft 461 kts 160°
2026-05-08 21:30 50.05093 6.02125 24125 ft 461 kts 160°
2026-05-08 21:30 50.02124 6.03830 24124 ft 461 kts 160°
2026-05-08 21:30 49.99111 6.05556 24120 ft 461 kts 160°
2026-05-08 21:30 49.96099 6.07276 24120 ft 461 kts 160°
2026-05-08 21:31 49.92997 6.08520 24112 ft 461 kts 173°
2026-05-08 21:31 49.89798 6.08508 24106 ft 460 kts 188°
2026-05-08 21:31 49.86700 6.07318 24105 ft 459 kts 201°
2026-05-08 21:31 49.83852 6.05126 24105 ft 458 kts 213°
2026-05-08 21:32 49.81374 6.02059 24105 ft 456 kts 226°
2026-05-08 21:32 49.79373 5.98263 24107 ft 455 kts 235°
2026-05-08 21:32 49.77536 5.94274 24109 ft 455 kts 235°
2026-05-08 21:32 49.75699 5.90289 24109 ft 455 kts 235°
2026-05-08 21:33 49.73862 5.86312 24103 ft 455 kts 235°
2026-05-08 21:33 49.72018 5.82332 24093 ft 455 kts 235°
2026-05-08 21:33 49.70171 5.78357 24091 ft 456 kts 235°
2026-05-08 21:33 49.68317 5.74379 24091 ft 457 kts 235°
2026-05-08 21:34 49.66458 5.70403 24092 ft 457 kts 235°
2026-05-08 21:34 49.64594 5.66424 24092 ft 457 kts 235°
2026-05-08 21:34 49.62868 5.62314 24090 ft 456 kts 243°
2026-05-08 21:34 49.61572 5.57861 24092 ft 455 kts 252°
2026-05-08 21:35 49.60745 5.53162 24089 ft 453 kts 261°
2026-05-08 21:35 49.60390 5.48351 24091 ft 452 kts 268°
2026-05-08 21:35 49.60188 5.43511 24091 ft 452 kts 267°
2026-05-08 21:35 49.59980 5.38747 24082 ft 452 kts 268°
2026-05-08 21:36 49.59759 5.33909 24083 ft 452 kts 268°
2026-05-08 21:36 49.59527 5.29072 24084 ft 453 kts 267°
2026-05-08 21:36 49.59290 5.24233 24085 ft 453 kts 267°
2026-05-08 21:36 49.59161 5.19393 24082 ft 452 kts 272°
2026-05-08 21:37 49.59205 5.14550 24089 ft 451 kts 272°
2026-05-08 21:37 49.59260 5.09801 24116 ft 437 kts 273°
2026-05-08 21:37 49.59309 5.05048 24122 ft 448 kts 272°
2026-05-08 21:37 49.59348 5.00214 24097 ft 452 kts 272°
2026-05-08 21:38 49.59378 4.95360 24106 ft 453 kts 272°
2026-05-08 21:38 49.59405 4.90492 24104 ft 454 kts 272°
2026-05-08 21:38 49.59431 4.85626 24100 ft 454 kts 272°
2026-05-08 21:38 49.59457 4.80761 24102 ft 454 kts 272°
2026-05-08 21:39 49.59482 4.75896 24107 ft 454 kts 273°
2026-05-08 21:39 49.59508 4.71025 24100 ft 454 kts 273°
2026-05-08 21:39 49.59536 4.66153 24096 ft 454 kts 273°
2026-05-08 21:39 49.59564 4.61283 24105 ft 454 kts 273°
2026-05-08 21:40 49.59590 4.56422 24105 ft 454 kts 272°
2026-05-08 21:40 49.59609 4.51606 24094 ft 454 kts 272°
2026-05-08 21:40 49.59622 4.46745 24081 ft 454 kts 272°
2026-05-08 21:41 49.59639 4.37002 24074 ft 454 kts 272°
2026-05-08 21:41 49.59646 4.32133 24076 ft 454 kts 272°
2026-05-08 21:41 49.59651 4.27265 24076 ft 454 kts 272°
2026-05-08 21:41 49.59655 4.22400 24078 ft 454 kts 272°
2026-05-08 21:42 49.59658 4.17532 24074 ft 454 kts 272°
2026-05-08 21:42 49.59573 4.12664 24074 ft 456 kts 267°
2026-05-08 21:42 49.59012 4.07841 24080 ft 459 kts 257°
2026-05-08 21:42 49.57928 4.03181 24077 ft 463 kts 248°
2026-05-08 21:43 49.56362 3.98835 24072 ft 465 kts 239°
2026-05-08 21:43 49.54617 3.94731 24091 ft 451 kts 239°
2026-05-08 21:43 49.52934 3.90763 24095 ft 447 kts 239°
2026-05-08 21:43 49.51243 3.86767 24094 ft 445 kts 239°
2026-05-08 21:44 49.49556 3.82767 24089 ft 445 kts 239°
2026-05-08 21:44 49.47979 3.78685 24093 ft 442 kts 246°
2026-05-08 21:44 49.46877 3.74308 24014 ft 434 kts 256°
2026-05-08 21:44 49.46105 3.69868 23355 ft 427 kts 258°
2026-05-08 21:45 49.45364 3.65470 22660 ft 422 kts 258°
2026-05-08 21:45 49.44639 3.61121 21994 ft 417 kts 257°
2026-05-08 21:45 49.43922 3.56826 21340 ft 413 kts 257°
2026-05-08 21:45 49.43207 3.52587 20733 ft 408 kts 256°
2026-05-08 21:46 49.42496 3.48381 20140 ft 404 kts 256°
2026-05-08 21:46 49.41706 3.44258 19568 ft 401 kts 249°
2026-05-08 21:46 49.40648 3.40316 18986 ft 401 kts 246°
2026-05-08 21:46 49.39510 3.36234 18236 ft 424 kts 246°
2026-05-08 21:47 49.38354 3.32064 17567 ft 425 kts 246°
2026-05-08 21:47 49.37198 3.27904 17094 ft 423 kts 246°
2026-05-08 21:47 49.36044 3.23763 16621 ft 420 kts 246°
2026-05-08 21:47 49.34908 3.19655 16156 ft 417 kts 248°
2026-05-08 21:48 49.34007 3.15507 15698 ft 414 kts 252°
2026-05-08 21:48 49.33156 3.11308 15225 ft 410 kts 252°
2026-05-08 21:48 49.32313 3.07141 15060 ft 408 kts 252°
2026-05-08 21:48 49.31470 3.02985 15096 ft 413 kts 252°
2026-05-08 21:49 49.30609 2.98741 15090 ft 421 kts 252°
2026-05-08 21:49 49.29738 2.94449 14844 ft 420 kts 252°
2026-05-08 21:49 49.28873 2.90201 14305 ft 417 kts 252°
2026-05-08 21:49 49.28011 2.85979 13718 ft 413 kts 252°
2026-05-08 21:50 49.27153 2.81792 13055 ft 409 kts 252°
2026-05-08 21:50 49.26306 2.77670 12394 ft 404 kts 252°
2026-05-08 21:50 49.25467 2.73589 11765 ft 399 kts 252°
2026-05-08 21:50 49.24639 2.69559 11240 ft 395 kts 252°
2026-05-08 21:51 49.23818 2.65557 11067 ft 394 kts 252°
2026-05-08 21:51 49.22989 2.61550 11090 ft 397 kts 252°
2026-05-08 21:51 49.22153 2.57522 11087 ft 397 kts 252°
2026-05-08 21:51 49.21315 2.53490 11085 ft 398 kts 252°
2026-05-08 21:52 49.20498 2.49562 11083 ft 376 kts 252°
2026-05-08 21:52 49.19732 2.45877 11082 ft 351 kts 252°
2026-05-08 21:52 49.19014 2.42427 11083 ft 330 kts 252°
2026-05-08 21:52 49.18328 2.39129 10909 ft 323 kts 252°
2026-05-08 21:53 49.17653 2.35880 10538 ft 319 kts 252°
2026-05-08 21:53 49.16992 2.32705 10180 ft 316 kts 252°
2026-05-08 21:53 49.16328 2.29515 9802 ft 315 kts 252°
2026-05-08 21:53 49.15665 2.26334 9402 ft 313 kts 252°
2026-05-08 21:54 49.15012 2.23200 8936 ft 308 kts 252°
2026-05-08 21:54 49.14366 2.20093 8424 ft 305 kts 252°
2026-05-08 21:54 49.13714 2.17027 7909 ft 302 kts 252°
2026-05-08 21:54 49.13067 2.13996 7408 ft 299 kts 252°
2026-05-08 21:55 49.12424 2.10990 6909 ft 296 kts 252°
2026-05-08 21:55 49.11788 2.08014 6416 ft 293 kts 252°
2026-05-08 21:55 49.11108 2.05093 5901 ft 291 kts 243°
2026-05-08 21:56 49.08069 2.01499 4888 ft 282 kts 189°
2026-05-08 21:56 49.06135 2.01528 4375 ft 274 kts 169°
2026-05-08 21:56 49.04404 2.02341 4039 ft 253 kts 153°
2026-05-08 21:56 49.02997 2.03663 4003 ft 223 kts 140°
2026-05-08 21:57 49.01939 2.05232 4010 ft 207 kts 128°
2026-05-08 21:57 49.01155 2.06975 4005 ft 192 kts 117°
2026-05-08 21:57 49.00636 2.08770 4026 ft 177 kts 108°
2026-05-08 21:57 49.00350 2.10511 4024 ft 169 kts 99°
2026-05-08 21:58 49.00252 2.12353 4012 ft 177 kts 90°
2026-05-08 21:58 49.00335 2.14242 4007 ft 179 kts 85°
2026-05-08 21:58 49.00444 2.16133 4005 ft 179 kts 85°
2026-05-08 21:58 49.00551 2.17983 4000 ft 168 kts 85°
2026-05-08 21:59 49.00648 2.19681 4005 ft 157 kts 85°
2026-05-08 21:59 49.00739 2.21277 3995 ft 144 kts 85°
2026-05-08 21:59 49.00822 2.22746 4005 ft 135 kts 85°
2026-05-08 21:59 49.00902 2.24160 3964 ft 133 kts 86°
2026-05-08 22:00 49.00981 2.25559 3833 ft 132 kts 85°
2026-05-08 22:00 49.01060 2.26947 3675 ft 131 kts 86°
2026-05-08 22:00 49.01137 2.28323 3512 ft 130 kts 85°
2026-05-08 22:00 49.01214 2.29695 3338 ft 129 kts 86°
2026-05-08 22:01 49.01290 2.31043 3177 ft 129 kts 85°
2026-05-08 22:01 49.01366 2.32399 3002 ft 128 kts 85°
2026-05-08 22:01 49.01441 2.33744 2829 ft 127 kts 85°
2026-05-08 22:01 49.01516 2.35087 2661 ft 127 kts 85°
2026-05-08 22:02 49.01589 2.36419 2499 ft 126 kts 86°
2026-05-08 22:02 49.01660 2.37747 2330 ft 126 kts 84°
2026-05-08 22:02 49.01735 2.39074 2159 ft 126 kts 85°
2026-05-08 22:02 49.01808 2.40394 1976 ft 125 kts 85°
2026-05-08 22:03 49.01878 2.41711 1824 ft 125 kts 85°
2026-05-08 22:03 49.01951 2.43025 1668 ft 124 kts 84°
2026-05-08 22:03 49.02025 2.44338 1465 ft 124 kts 85°
2026-05-08 22:03 49.02093 2.45646 1303 ft 124 kts 84°
2026-05-08 22:04 49.02166 2.46962 1121 ft 125 kts 84°
2026-05-08 22:04 49.02242 2.48292 977 ft 126 kts 83°
2026-05-08 22:04 49.02315 2.49626 790 ft 126 kts 83°
2026-05-08 22:04 49.02389 2.50954 622 ft 126 kts 84°
2026-05-08 22:05 49.02462 2.52293 436 ft 126 kts 83°
2026-05-08 22:05 49.02528 2.53567 359 ft 109 kts 83°
2026-05-08 22:05 49.02583 2.54482 355 ft 64 kts 85°
2026-05-08 22:05 49.02615 2.54991 353 ft 38 kts 86°
2026-05-08 22:06 49.02570 2.55291 357 ft 29 kts 116°
2026-05-08 22:06 49.02493 2.55541 355 ft 15 kts 116°
2026-05-08 22:06 49.02430 2.55609 358 ft 8 kts 175°
2026-05-08 22:06 49.02397 2.55614 355 ft 0 kts 174°
2026-05-08 22:07 49.02396 2.55614 355 ft 2 kts 174°
2026-05-08 22:07 49.02364 2.55619 360 ft 5 kts 174°
2026-05-08 22:07 49.02333 2.55624 355 ft 4 kts 174°
2026-05-08 22:08 49.02287 2.55631 354 ft 14 kts 174°
2026-05-08 22:08 49.02174 2.55647 355 ft 14 kts 175°
2026-05-08 22:08 49.02131 2.55653 355 ft 8 kts 175°
2026-05-08 22:08 49.02106 2.55654 362 ft 3 kts 179°
2026-05-08 22:09 49.02081 2.55653 361 ft 5 kts 185°
2026-05-08 22:09 49.02072 2.55595 356 ft 11 kts 271°
2026-05-08 22:09 49.02061 2.55473 359 ft 11 kts 264°
2026-05-08 22:09 49.02054 2.55353 355 ft 12 kts 265°
2026-05-08 22:10 49.02047 2.55225 355 ft 12 kts 265°
2026-05-08 22:10 49.02041 2.55077 355 ft 17 kts 268°
2026-05-08 22:10 49.02032 2.54885 356 ft 20 kts 266°
2026-05-08 22:10 49.02020 2.54665 355 ft 22 kts 266°
2026-05-08 22:11 49.02006 2.54421 355 ft 25 kts 264°
2026-05-08 22:11 49.01987 2.54230 357 ft 17 kts 251°
2026-05-08 22:11 49.01894 2.54135 362 ft 15 kts 180°
2026-05-08 22:11 49.01801 2.54075 356 ft 16 kts 235°
2026-05-08 22:12 49.01737 2.53996 355 ft 9 kts 179°
2026-05-08 22:12 49.01687 2.54040 357 ft 9 kts 147°
2026-05-08 22:12 49.02520 2.53435 356 ft 0 kts 83°